Sigfox identifier Datetime Temperature Humidity SNR
00363A2B 2019-02-20 14:08:47 20.9 22 24.3
00363A2B 2019-02-20 13:36:43 20.9 23 24.3
00363A2B 2019-02-20 13:04:35 20.9 24 23.6
00363A2B 2019-02-20 12:32:30 20.9 24 22.9
00363A2B 2019-02-20 12:00:24 20.8 25 22.9
00363A2B 2019-02-20 11:28:15 20.8 26 22
00363A2B 2019-02-20 10:56:10 20.8 26 22
00363A2B 2019-02-20 10:24:08 21 26 22.1
00363A2B 2019-02-20 10:22:50 20.8 27 22.2
00363A2B 2019-02-20 09:50:43 20.8 27 22.1
00363A2B 2019-02-20 09:18:37 20.7 27 20.9
00363A2B 2019-02-20 08:46:30 20.7 27 19.4
00363A2B 2019-02-20 08:14:24 20.7 27 19.3
00363A2B 2019-02-20 07:42:17 20.7 27 19.2
00363A2B 2019-02-20 07:10:11 20.7 27 19.1
00363A2B 2019-02-20 06:38:06 20.7 27 19.5
00363A2B 2019-02-20 06:06:00 20.7 27 19.4
00363A2B 2019-02-20 05:33:54 20.7 27 19.2
00363A2B 2019-02-20 05:01:49 20.7 27 19
00363A2B 2019-02-20 04:29:43 20.8 27 18.7
00363A2B 2019-02-20 03:57:36 20.8 27 18.4
00363A2B 2019-02-20 03:25:30 20.8 27 18.4
00363A2B 2019-02-20 02:53:25 20.8 27 17.7
00363A2B 2019-02-20 02:21:18 20.8 27 17.5
00363A2B 2019-02-20 01:49:10 20.8 27 17.4
00363A2B 2019-02-20 01:17:04 20.8 27 17.2
00363A2B 2019-02-20 00:44:57 20.8 27 17.1
00363A2B 2019-02-20 00:12:50 20.8 27 16.9
00363A2B 2019-02-19 23:40:43 20.8 27 16.7
00363A2B 2019-02-19 23:08:36 20.8 27 19.2
00363A2B 2019-02-19 22:36:30 20.8 27 19.2
00363A2B 2019-02-19 22:04:24 20.9 27 19.1
00363A2B 2019-02-19 21:32:17 20.9 27 18.8
00363A2B 2019-02-19 21:00:12 20.9 27 18.7
00363A2B 2019-02-19 20:28:06 20.9 27 18.6
00363A2B 2019-02-19 19:55:59 20.9 27 18.7
00363A2B 2019-02-19 19:23:52 20.9 27 18.5
00363A2B 2019-02-19 18:51:45 21 27 18.5
00363A2B 2019-02-19 18:19:41 21 27 18.7
00363A2B 2019-02-19 17:47:32 21.1 27 18.6
00363A2B 2019-02-19 17:15:26 21.1 27 18.3
00363A2B 2019-02-19 16:43:19 21.1 27 18.4
00363A2B 2019-02-19 16:11:12 21 27 18.5
00363A2B 2019-02-19 15:39:06 21 27 18.6
00363A2B 2019-02-19 15:07:01 21 27 18.6
00363A2B 2019-02-19 14:34:56 21 27 18.7
00363A2B 2019-02-19 14:02:48 21 27 18.8
00363A2B 2019-02-19 13:30:39 21 27 20.6
00363A2B 2019-02-19 12:58:31 21 26 20.8
00363A2B 2019-02-19 12:26:27 21 26 21
00363A2B 2019-02-19 11:54:19 21 27 21
00363A2B 2019-02-19 11:22:14 20.9 26 21
00363A2B 2019-02-19 10:50:08 20.9 26 21.2
00363A2B 2019-02-19 10:18:03 20.8 26 21.3
00363A2B 2019-02-19 09:13:54 20.8 25 20
00363A2B 2019-02-19 08:41:50 20.8 25 20
00363A2B 2019-02-19 08:09:39 21 24 20.2
00363A2B 2019-02-19 08:08:26 20.8 25 20.2
00363A2B 2019-02-19 07:36:18 20.7 24 21.6
00363A2B 2019-02-19 07:04:11 20.7 24 21.6
00363A2B 2019-02-19 06:32:04 20.7 24 21.7
00363A2B 2019-02-19 05:59:57 20.8 24 21.7
00363A2B 2019-02-19 05:27:50 20.7 24 21.6
00363A2B 2019-02-19 04:55:43 20.8 24 22.6
00363A2B 2019-02-19 04:23:37 20.8 24 22.5
00363A2B 2019-02-19 03:51:31 20.7 24 22.5
00363A2B 2019-02-19 03:19:25 20.8 24 22.5
00363A2B 2019-02-19 02:47:19 20.8 24 22.5
00363A2B 2019-02-19 02:15:11 20.8 23 22.6
00363A2B 2019-02-19 01:43:06 20.8 23 22.7
00363A2B 2019-02-19 01:10:59 20.8 23 22.9
00363A2B 2019-02-19 00:38:51 20.8 23 23
00363A2B 2019-02-19 00:06:45 20.7 23 22.4
00363A2B 2019-02-18 23:34:38 20.8 23 22.4
00363A2B 2019-02-18 23:02:32 20.8 23 22.4
00363A2B 2019-02-18 22:30:24 20.8 23 22.5
00363A2B 2019-02-18 21:58:19 20.8 22 22.6
00363A2B 2019-02-18 21:26:09 20.8 22 22.6
00363A2B 2019-02-18 20:54:01 20.8 22 22.8
00363A2B 2019-02-18 20:21:55 20.8 22 22.9
00363A2B 2019-02-18 19:49:50 20.9 22 23
00363A2B 2019-02-18 19:17:44 20.9 22 23.1
00363A2B 2019-02-18 18:45:38 20.9 22 23.3
00363A2B 2019-02-18 18:13:31 20.9 21 22.6
00363A2B 2019-02-18 17:41:26 20.9 21 22.6
00363A2B 2019-02-18 17:09:18 21 21 22.7
00363A2B 2019-02-18 16:37:12 21 21 22.8
00363A2B 2019-02-18 16:05:05 21 21 23
00363A2B 2019-02-18 15:00:51 21.1 21 22.3
00363A2B 2019-02-18 14:28:43 21.2 21 22.5
00363A2B 2019-02-18 13:56:37 21.2 20 22.6
00363A2B 2019-02-18 13:24:31 21.3 20 22.8
00363A2B 2019-02-18 12:52:25 21.4 20 23
00363A2B 2019-02-18 12:20:23 21.4 20 23
00363A2B 2019-02-18 11:48:14 21.4 20 23.1
00363A2B 2019-02-18 11:16:07 21.3 19 23.2
00363A2B 2019-02-18 10:44:00 21.3 19 23.2
00363A2B 2019-02-18 10:11:55 21.2 19 23.1
00363A2B 2019-02-18 09:39:50 21.1 19 23.2
00363A2B 2019-02-18 09:07:43 21.1 19 23.4
00363A2B 2019-02-18 08:35:36 21 19 23.3
00363A2B 2019-02-18 08:03:28 20.9 19 23.4
00363A2B 2019-02-18 07:31:21 20.8 19 23.4
00363A2B 2019-02-18 06:59:14 20.8 19 23.6
00363A2B 2019-02-18 06:27:07 20.8 19 23.5
00363A2B 2019-02-18 05:55:00 21.1 18 23.5
00363A2B 2019-02-18 05:53:45 20.8 18 23.6
00363A2B 2019-02-18 05:21:38 20.8 19 23.5
00363A2B 2019-02-18 04:49:33 20.8 19 23.5
00363A2B 2019-02-18 04:17:26 20.8 19 23.6
00363A2B 2019-02-18 03:45:20 20.8 19 23.6
00363A2B 2019-02-18 03:13:14 20.8 19 23.7
00363A2B 2019-02-18 02:41:08 20.8 19 23.7
00363A2B 2019-02-18 02:08:59 20.9 19 23.6
00363A2B 2019-02-18 01:36:51 20.9 19 23.7
00363A2B 2019-02-18 01:04:44 20.9 19 23.8
00363A2B 2019-02-18 00:32:37 20.9 19 23.7
00363A2B 2019-02-18 00:00:29 20.9 19 23.7
00363A2B 2019-02-17 23:28:23 20.9 19 23.7
00363A2B 2019-02-17 22:56:16 20.9 19 23.7
00363A2B 2019-02-17 22:24:09 20.9 20 23.7
00363A2B 2019-02-17 21:52:02 20.9 20 23.5
00363A2B 2019-02-17 21:19:54 20.9 20 23.6
00363A2B 2019-02-17 20:47:46 20.9 20 23.4
00363A2B 2019-02-17 20:15:38 20.9 20 23.3
00363A2B 2019-02-17 19:43:32 21 20 23.4
00363A2B 2019-02-17 19:11:24 21 20 23.3
00363A2B 2019-02-17 18:39:15 21 20 23.2
00363A2B 2019-02-17 18:07:07 21 20 23
00363A2B 2019-02-17 17:35:00 21 20 23
00363A2B 2019-02-17 17:02:51 21 20 23
00363A2B 2019-02-17 16:30:43 21 20 23
00363A2B 2019-02-17 15:58:35 21.1 20 22.9
00363A2B 2019-02-17 15:26:28 21.1 21 23
00363A2B 2019-02-17 14:54:19 21.1 21 22.9
00363A2B 2019-02-17 14:22:12 21.1 21 22.8
00363A2B 2019-02-17 13:50:04 21.1 21 23.5
00363A2B 2019-02-17 13:17:56 21.1 21 23.5
00363A2B 2019-02-17 12:45:50 21.1 21 23.5
00363A2B 2019-02-17 12:13:42 21 21 23.4
00363A2B 2019-02-17 11:41:35 21 21 23.3
00363A2B 2019-02-17 11:09:28 21 21 23.3
00363A2B 2019-02-17 10:37:21 21 21 23.4
00363A2B 2019-02-17 10:05:13 21 21 23.5
00363A2B 2019-02-17 09:33:05 21 21 23.5
00363A2B 2019-02-17 09:00:57 21 21 23.4
00363A2B 2019-02-17 08:28:48 21 21 23.5
00363A2B 2019-02-17 07:56:41 21 22 23.5
00363A2B 2019-02-17 07:24:32 21 22 23.5
00363A2B 2019-02-17 06:52:25 21 22 23.6
00363A2B 2019-02-17 06:20:19 21 22 23.6
00363A2B 2019-02-17 05:48:14 21 22 23.7
00363A2B 2019-02-17 05:16:06 21 22 23.6
00363A2B 2019-02-17 04:43:59 21.1 22 23.7
00363A2B 2019-02-17 04:11:53 21 23 23.7
00363A2B 2019-02-17 03:39:47 21.3 23 23.7
00363A2B 2019-02-17 03:38:32 21 23 23.6
00363A2B 2019-02-17 03:06:24 21.1 23 23.7
00363A2B 2019-02-17 02:34:17 21 23 23.6
00363A2B 2019-02-17 02:02:10 21 24 23.7
00363A2B 2019-02-17 01:30:01 21.1 24 23.8
00363A2B 2019-02-17 00:57:54 21.1 24 23.3
00363A2B 2019-02-17 00:25:47 21 24 23.3
00363A2B 2019-02-16 23:53:41 21 24 23.3
00363A2B 2019-02-16 23:21:33 21.1 24 23.3
00363A2B 2019-02-16 22:49:27 21.1 24 23.4
00363A2B 2019-02-16 22:17:20 21.1 25 23.4
00363A2B 2019-02-16 21:45:14 21.1 25 23.3
00363A2B 2019-02-16 21:13:07 21.1 25 23.2
00363A2B 2019-02-16 20:41:01 21.1 25 23.1
00363A2B 2019-02-16 20:08:54 21.1 25 23.2
00363A2B 2019-02-16 19:36:48 21.1 25 23.1
00363A2B 2019-02-16 19:04:42 21.1 25 23.2
00363A2B 2019-02-16 18:32:35 21.1 25 23.2
00363A2B 2019-02-16 18:00:28 21.2 25 23.2
00363A2B 2019-02-16 17:28:22 21.3 25 23.1
00363A2B 2019-02-16 16:56:15 21.3 25 23.2
00363A2B 2019-02-16 16:24:06 21.3 25 23.3
00363A2B 2019-02-16 15:51:58 21.3 25 23.3
00363A2B 2019-02-16 15:19:51 21.3 25 23.4
00363A2B 2019-02-16 14:47:43 21.3 25 23.5
00363A2B 2019-02-16 14:15:36 21.3 25 23.4
00363A2B 2019-02-16 13:43:28 21.2 25 23.4
00363A2B 2019-02-16 13:11:21 21.2 25 23.4
00363A2B 2019-02-16 12:39:13 21.2 25 23.4
00363A2B 2019-02-16 12:07:06 21.1 25 23.3
00363A2B 2019-02-16 11:34:58 21.1 25 23.2
00363A2B 2019-02-16 11:02:50 21 25 23.2
00363A2B 2019-02-16 10:30:44 21 25 23.1
00363A2B 2019-02-16 09:58:38 21 25 23.1
00363A2B 2019-02-16 09:26:32 21 25 23.1
00363A2B 2019-02-16 08:54:25 21 25 23.1
00363A2B 2019-02-16 08:22:18 21 25 23.1
00363A2B 2019-02-16 07:50:10 21 25 23.1
00363A2B 2019-02-16 07:18:02 21.1 25 23.1
00363A2B 2019-02-16 06:45:54 21 26 23
00363A2B 2019-02-16 06:13:47 21 26 23.1
00363A2B 2019-02-16 05:41:39 21 26 23
00363A2B 2019-02-16 05:09:32 21 25 22.9
00363A2B 2019-02-16 04:37:24 21.1 25 22.9
00363A2B 2019-02-16 04:05:17 21.1 25 22.8
00363A2B 2019-02-16 03:33:10 21.1 25 23.4
00363A2B 2019-02-16 03:01:02 21.1 25 23.4
00363A2B 2019-02-16 02:28:55 21.1 25 23.4
00363A2B 2019-02-16 01:56:46 21.1 25 23.4
00363A2B 2019-02-16 01:24:39 21.4 25 23.2
00363A2B 2019-02-16 01:23:25 21.1 25 23.3
00363A2B 2019-02-16 00:51:18 21.1 25 23.3
00363A2B 2019-02-16 00:19:10 21.2 25 23.2
00363A2B 2019-02-15 23:47:02 21.2 25 23.2
00363A2B 2019-02-15 23:14:55 21.3 25 23.2
00363A2B 2019-02-15 22:42:49 21.3 25 23.2
00363A2B 2019-02-15 22:10:42 21.4 25 23.1
00363A2B 2019-02-15 21:38:35 21.4 25 23.2
00363A2B 2019-02-15 21:06:28 21.5 25 23.2
00363A2B 2019-02-15 20:34:20 21.5 25 23.2
00363A2B 2019-02-15 20:02:12 21.6 25 23.2
00363A2B 2019-02-15 19:30:04 21.7 25 23.2
00363A2B 2019-02-15 18:57:56 21.7 25 23.2
00363A2B 2019-02-15 18:25:48 21.8 25 23.2
00363A2B 2019-02-15 17:53:40 21.8 25 23.2
00363A2B 2019-02-15 17:21:32 21.8 25 23.2
00363A2B 2019-02-15 16:49:24 21.8 24 23.3
00363A2B 2019-02-15 16:17:15 21.7 24 23.4
00363A2B 2019-02-15 15:45:07 21.7 24 23.5
00363A2B 2019-02-15 15:12:58 21.7 24 23.5
00363A2B 2019-02-15 14:40:50 21.7 24 22.8
00363A2B 2019-02-15 14:08:42 21.7 24 22.8
00363A2B 2019-02-15 13:36:34 21.7 24 22.8
00363A2B 2019-02-15 13:04:27 21.6 24 22.8
00363A2B 2019-02-15 12:32:19 21.6 24 23.5
00363A2B 2019-02-15 12:00:13 21.6 24 23.4
00363A2B 2019-02-15 11:28:06 21.5 24 23.4
00363A2B 2019-02-15 10:55:59 21.5 25 23.4
00363A2B 2019-02-15 10:23:54 21.5 25 23.7
00363A2B 2019-02-15 09:51:46 21.4 25 23.7
00363A2B 2019-02-15 09:19:40 21.4 25 23.7
00363A2B 2019-02-15 08:47:33 21.3 25 23.7
00363A2B 2019-02-15 08:15:26 21.3 25 23.7
00363A2B 2019-02-15 07:43:20 21.3 25 23.7
00363A2B 2019-02-15 07:11:12 21.2 25 23.7
00363A2B 2019-02-15 06:39:05 21.3 25 23.7
00363A2B 2019-02-15 06:06:58 21.3 25 23.7
00363A2B 2019-02-15 05:34:51 21.2 25 23.7
00363A2B 2019-02-15 05:02:43 21.2 25 23.6
00363A2B 2019-02-15 04:30:35 21.3 25 23.5
00363A2B 2019-02-15 03:58:27 21.3 26 23.4
00363A2B 2019-02-15 03:26:20 21.2 26 23.3
00363A2B 2019-02-15 02:54:13 21.3 26 23.1
00363A2B 2019-02-15 02:22:06 21.3 26 22.8
00363A2B 2019-02-15 01:50:00 21.3 26 22.7
00363A2B 2019-02-15 01:17:54 21.3 25 22.6
00363A2B 2019-02-15 00:45:48 21.3 25 22.5
00363A2B 2019-02-15 00:13:40 21.3 25 22.4
00363A2B 2019-02-14 23:41:33 21.4 25 22.3
00363A2B 2019-02-14 23:09:25 21.6 25 21.2
00363A2B 2019-02-14 23:08:09 21.4 25 21
00363A2B 2019-02-14 22:36:02 21.4 25 21
00363A2B 2019-02-14 22:03:56 21.5 25 20.7
00363A2B 2019-02-14 21:31:49 21.5 25 20.4
00363A2B 2019-02-14 20:59:42 21.6 24 20.5
00363A2B 2019-02-14 20:27:36 21.7 24 20.3
00363A2B 2019-02-14 19:55:31 21.7 24 20.3
00363A2B 2019-02-14 19:23:23 21.8 24 20.5
00363A2B 2019-02-14 18:51:16 21.9 24 20.6
00363A2B 2019-02-14 18:19:09 21.9 24 20.5
00363A2B 2019-02-14 17:47:00 21.9 24 20.3
00363A2B 2019-02-14 17:14:51 22 24 20.3
00363A2B 2019-02-14 16:42:44 22 24 20.4
00363A2B 2019-02-14 16:10:37 22.1 24 20.6
00363A2B 2019-02-14 15:38:30 22 23 20.7
00363A2B 2019-02-14 15:06:23 22 24 20.8
00363A2B 2019-02-14 14:34:17 21.9 24 21.1
00363A2B 2019-02-14 14:02:10 21.7 23 21.4
00363A2B 2019-02-14 13:30:06 21.6 24 21.6
00363A2B 2019-02-14 12:57:57 21.6 24 21.9
00363A2B 2019-02-14 12:25:50 21.4 23 21.8
00363A2B 2019-02-14 11:53:44 21.4 23 22.1
00363A2B 2019-02-14 11:21:37 21.4 24 22.3
00363A2B 2019-02-14 10:49:30 21.1 24 22.4
00363A2B 2019-02-14 10:17:24 21 24 22.6
00363A2B 2019-02-14 09:45:17 20.9 24 22.7
00363A2B 2019-02-14 09:13:11 20.9 24 22.8
00363A2B 2019-02-14 08:41:04 20.8 24 22.8
00363A2B 2019-02-14 08:08:56 20.8 24 22.6
00363A2B 2019-02-14 07:36:48 20.8 25 22.6
00363A2B 2019-02-14 07:04:40 20.8 25 22.5
00363A2B 2019-02-14 06:32:32 20.8 25 22.5
00363A2B 2019-02-14 06:00:24 20.9 25 22.3
00363A2B 2019-02-14 05:28:15 20.9 25 22.2
00363A2B 2019-02-14 04:56:08 20.8 25 22.1
00363A2B 2019-02-14 04:24:01 20.9 25 22.2
00363A2B 2019-02-14 03:51:54 20.9 25 22
00363A2B 2019-02-14 03:19:45 20.9 25 22.8
00363A2B 2019-02-14 02:47:37 20.9 25 22.6
00363A2B 2019-02-14 02:15:30 20.9 25 22.6
00363A2B 2019-02-14 01:43:22 20.9 25 22.6
00363A2B 2019-02-14 01:11:14 20.9 25 22.7
00363A2B 2019-02-14 00:39:08 20.9 25 22.6
00363A2B 2019-02-14 00:07:00 20.9 25 22.3
00363A2B 2019-02-13 23:34:51 21 25 22.1
00363A2B 2019-02-13 23:02:44 21 25 22.1
00363A2B 2019-02-13 22:30:34 21 25 21.8
00363A2B 2019-02-13 21:58:25 21.1 25 21.9
00363A2B 2019-02-13 21:26:17 21.1 25 21.8
00363A2B 2019-02-13 20:54:09 21.4 25 21.6
00363A2B 2019-02-13 20:52:54 21.2 25 21.6
00363A2B 2019-02-13 20:20:47 21.2 25 21.5
00363A2B 2019-02-13 19:48:41 21.3 25 21.4
00363A2B 2019-02-13 19:16:35 21.4 25 21.5
00363A2B 2019-02-13 18:44:28 21.4 25 21.4
00363A2B 2019-02-13 18:12:22 21.5 26 21.5
00363A2B 2019-02-13 17:40:16 21.4 26 21.5
00363A2B 2019-02-13 17:08:10 21.4 26 21.6
00363A2B 2019-02-13 16:36:03 21.3 26 21.7
00363A2B 2019-02-13 16:03:56 21.3 26 21.9
00363A2B 2019-02-13 15:31:50 21.2 25 21.8
00363A2B 2019-02-13 14:59:42 21.2 25 21.8
00363A2B 2019-02-13 14:27:37 21.2 24 20.7
00363A2B 2019-02-13 13:55:27 21.2 24 20.8
00363A2B 2019-02-13 13:23:20 21.2 24 20.7
00363A2B 2019-02-13 12:51:15 21.2 25 20.7
00363A2B 2019-02-13 12:19:11 21.1 24 20.3
00363A2B 2019-02-13 11:47:02 21.1 24 20.1
00363A2B 2019-02-13 11:14:56 21 24 20.1
00363A2B 2019-02-13 10:42:50 20.9 24 20.2
00363A2B 2019-02-13 10:10:44 20.9 23 21.5
00363A2B 2019-02-13 09:38:38 20.9 22 21.4
00363A2B 2019-02-13 09:06:33 20.8 22 21.3
00363A2B 2019-02-13 08:34:28 20.8 21 21.3
00363A2B 2019-02-13 08:02:22 20.8 20 21.4
00363A2B 2019-02-13 07:30:16 20.8 19 21.4
00363A2B 2019-02-13 06:58:10 20.8 19 21.2
00363A2B 2019-02-13 06:26:04 20.8 19 21.3
00363A2B 2019-02-13 05:53:56 20.8 19 21.3
00363A2B 2019-02-13 05:21:48 20.8 19 21.1
00363A2B 2019-02-13 04:49:41 20.8 19 21.3
00363A2B 2019-02-13 04:17:35 20.8 19 21.2
00363A2B 2019-02-13 03:45:28 20.8 19 20.9
00363A2B 2019-02-13 03:13:20 20.9 19 20.8
00363A2B 2019-02-13 02:41:14 20.8 18 20.6
00363A2B 2019-02-13 02:09:07 20.9 18 20.4
00363A2B 2019-02-13 01:37:01 20.9 18 20.5
00363A2B 2019-02-13 01:04:54 20.9 18 20.5
00363A2B 2019-02-13 00:32:47 21 19 20.3
00363A2B 2019-02-13 00:00:40 21 19 20.3
00363A2B 2019-02-12 23:28:34 21 19 20.1
00363A2B 2019-02-12 22:56:28 21 19 20.1
00363A2B 2019-02-12 22:24:18 21.1 19 20.3
00363A2B 2019-02-12 21:52:12 21.1 20 20.4
00363A2B 2019-02-12 21:20:04 21.3 21 20.4
00363A2B 2019-02-12 20:47:56 21.3 21 18.6
00363A2B 2019-02-12 20:15:49 21.4 20 19.1
00363A2B 2019-02-12 19:43:41 21.6 20 18.8
00363A2B 2019-02-12 19:11:34 21.6 20 19.1
00363A2B 2019-02-12 18:39:26 21.9 19 19.2
00363A2B 2019-02-12 18:38:12 21.6 19 19.5
00363A2B 2019-02-12 18:06:04 21.7 19 19.6
00363A2B 2019-02-12 17:33:56 21.8 19 19.6
00363A2B 2019-02-12 17:01:50 21.9 19 19.5
00363A2B 2019-02-12 16:29:42 22.1 18 19.6
00363A2B 2019-02-12 15:57:37 22.2 19 19.3
00363A2B 2019-02-12 15:25:30 22.2 19 19.2
00363A2B 2019-02-12 14:53:21 22.1 19 19.5
00363A2B 2019-02-12 14:21:14 21.8 19 19.9
00363A2B 2019-02-12 13:49:04 21.4 19 20
00363A2B 2019-02-12 13:16:57 21.4 19 20.3
00363A2B 2019-02-12 12:44:50 21.4 20 20.3
00363A2B 2019-02-12 12:12:42 21.3 20 20.3
00363A2B 2019-02-12 11:40:35 21.3 20 20.6
00363A2B 2019-02-12 11:08:25 21.2 21 20.9
00363A2B 2019-02-12 10:36:18 21.2 22 20.9
00363A2B 2019-02-12 10:04:10 21.1 22 21.1
00363A2B 2019-02-12 09:32:02 21.1 23 21.3
00363A2B 2019-02-12 08:59:55 21 23 21.5
00363A2B 2019-02-12 08:27:49 20.9 23 21.5
00363A2B 2019-02-12 07:55:41 20.8 24 21.7
00363A2B 2019-02-12 07:23:32 20.9 25 21.4
00363A2B 2019-02-12 06:51:24 20.8 26 21.5
00363A2B 2019-02-12 06:19:16 20.9 26 21.5
00363A2B 2019-02-12 05:47:08 20.9 26 21.2
00363A2B 2019-02-12 05:15:01 20.9 26 21
00363A2B 2019-02-12 04:42:55 20.9 26 21.1
00363A2B 2019-02-12 04:10:50 20.9 27 21.1
00363A2B 2019-02-12 03:38:41 20.9 27 21.3
00363A2B 2019-02-12 03:06:33 20.9 27 21.4
00363A2B 2019-02-12 02:34:27 21 27 21.5
00363A2B 2019-02-12 02:02:20 21 27 21.7
00363A2B 2019-02-12 01:30:13 21 27 21.6
00363A2B 2019-02-12 00:58:06 21 27 21.5
00363A2B 2019-02-12 00:25:58 21 27 21.6
00363A2B 2019-02-11 23:53:50 21.1 27 21.5
00363A2B 2019-02-11 23:21:42 21.1 27 21.7
00363A2B 2019-02-11 22:49:36 21.1 27 21.6
00363A2B 2019-02-11 22:17:25 21.2 27 21.5
00363A2B 2019-02-11 21:45:17 21.2 27 21.2
00363A2B 2019-02-11 21:13:08 21.3 27 21.5
00363A2B 2019-02-11 20:40:59 21.5 27 21.4
00363A2B 2019-02-11 20:08:52 21.5 27 20.9
00363A2B 2019-02-11 19:36:45 21.6 27 19.9
00363A2B 2019-02-11 19:04:37 21.7 27 20.3
00363A2B 2019-02-11 18:32:31 21.9 27 19.5
00363A2B 2019-02-11 18:00:22 22.1 27 20.2
00363A2B 2019-02-11 17:28:14 22.2 28 18.4
00363A2B 2019-02-11 16:56:06 22.3 28 10.7
00363A2B 2019-02-11 16:24:00 22.4 32 0